Wetterdaten: Mrz 2008
Datum Temp Feuchte Luftdruck Regen Wind Richtung Sonnenschein UV Solar Windben
01.03.2008 5,4 C 74 % 997,3 hPa 21,2 l/m 16,8 km/h N 0,00 h 0,0 UV-I 0 W/m 0,0 km/h
02.03.2008 7,0 C 68 % 1002,0 hPa 8,3 l/m 15,4 km/h N 0,00 h 0,0 UV-I 0 W/m 0,0 km/h
03.03.2008 3,5 C 68 % 1005,5 hPa 2,1 l/m 3,8 km/h N 0,00 h 0,0 UV-I 0 W/m 0,0 km/h
04.03.2008 0,7 C 70 % 1014,0 hPa 0,0 l/m 3,2 km/h N 0,00 h 0,0 UV-I 0 W/m 0,0 km/h
05.03.2008 0,0 C 61 % 1024,5 hPa 0,3 l/m 1,7 km/h N 0,00 h 0,0 UV-I 0 W/m 0,0 km/h
06.03.2008 3,4 C 77 % 1017,5 hPa 3,2 l/m 2,0 km/h N 0,00 h 0,0 UV-I 0 W/m 0,0 km/h
07.03.2008 5,3 C 82 % 1011,3 hPa 0,3 l/m 0,7 km/h N 0,00 h 0,0 UV-I 0 W/m 0,0 km/h
08.03.2008 4,1 C 71 % 1007,0 hPa 0,3 l/m 1,1 km/h N 0,00 h 0,0 UV-I 0 W/m 0,0 km/h
09.03.2008 6,1 C 67 % 999,3 hPa 0,0 l/m 5,9 km/h N 0,00 h 0,0 UV-I 0 W/m 0,0 km/h
10.03.2008 6,4 C 68 % 987,5 hPa 0,0 l/m 12,3 km/h N 0,00 h 0,0 UV-I 0 W/m 0,0 km/h
11.03.2008 5,4 C 74 % 987,5 hPa 11,2 l/m 5,2 km/h N 0,00 h 0,0 UV-I 0 W/m 0,0 km/h
12.03.2008 4,5 C 74 % 994,8 hPa 15,0 l/m 7,7 km/h N 0,00 h 0,0 UV-I 0 W/m 0,0 km/h
13.03.2008 5,2 C 68 % 1007,8 hPa 2,4 l/m 13,7 km/h N 0,00 h 0,0 UV-I 0 W/m 0,0 km/h
14.03.2008 4,6 C 70 % 1007,8 hPa 3,5 l/m 3,1 km/h N 0,00 h 0,0 UV-I 0 W/m 0,0 km/h
15.03.2008 5,9 C 71 % 1006,0 hPa 0,0 l/m 1,6 km/h N 0,00 h 0,0 UV-I 0 W/m 0,0 km/h
16.03.2008 6,3 C 83 % 998,0 hPa 20,1 l/m 1,2 km/h N 0,00 h 0,0 UV-I 0 W/m 0,0 km/h
17.03.2008 1,6 C 76 % 1007,0 hPa 1,2 l/m 4,2 km/h N 0,00 h 0,0 UV-I 0 W/m 0,0 km/h
18.03.2008 0,9 C 81 % 1008,3 hPa 2,4 l/m 7,0 km/h N 0,00 h 0,0 UV-I 0 W/m 0,0 km/h
19.03.2008 1,4 C 77 % 1010,3 hPa 9,7 l/m 2,3 km/h N 0,00 h 0,0 UV-I 0 W/m 0,0 km/h
20.03.2008 1,4 C 80 % 1001,5 hPa 12,7 l/m 4,5 km/h N 0,00 h 0,0 UV-I 0 W/m 0,0 km/h
21.03.2008 0,8 C 83 % 976,5 hPa 18,9 l/m 5,9 km/h N 0,00 h 0,0 UV-I 0 W/m 0,0 km/h
22.03.2008 -0,4 C 83 % 988,8 hPa 2,1 l/m 2,3 km/h N 0,00 h 0,0 UV-I 0 W/m 0,0 km/h
23.03.2008 -3,8 C 69 % 995,8 hPa 0,9 l/m 0,9 km/h N 0,00 h 0,0 UV-I 0 W/m 0,0 km/h
24.03.2008 -1,7 C 78 % 990,8 hPa 0,6 l/m 0,5 km/h N 0,00 h 0,0 UV-I 0 W/m 0,0 km/h
25.03.2008 -1,3 C 80 % 997,0 hPa 1,5 l/m 16,6 km/h N 0,00 h 0,0 UV-I 0 W/m 0,0 km/h
26.03.2008 -0,3 C 74 % 997,8 hPa 5,6 l/m 1,7 km/h N 0,00 h 0,0 UV-I 0 W/m 0,0 km/h
27.03.2008 3,2 C 76 % 1000,3 hPa 0,3 l/m 2,8 km/h N 0,00 h 0,0 UV-I 0 W/m 0,0 km/h
28.03.2008 6,5 C 63 % 1004,0 hPa 2,4 l/m 23,9 km/h N 0,00 h 0,0 UV-I 0 W/m 0,0 km/h
29.03.2008 4,8 C 68 % 1013,3 hPa 3,0 l/m 2,8 km/h N 0,00 h 0,0 UV-I 0 W/m 0,0 km/h
30.03.2008 10,2 C 56 % 1007,3 hPa 0,0 l/m 5,8 km/h N 0,00 h 0,0 UV-I 0 W/m 0,0 km/h
31.03.2008 7,4 C 72 % 1016,8 hPa 0,0 l/m 0,6 km/h N 0,00 h 0,0 UV-I 0 W/m 0,0 km/h
Min-Datum 24.03.08 30.03.08 21.03.08 25 Tage 04.03.08 - - - - 01.03.08
Min-Zeit 02:55 15:35 13:15 - 01:05 - - - - 00:05
Minimum -6,8 C 31 % 974,0 hPa - 0,0 km/h - - - - 0,0 km/h
Max-Datum 30.03.08 07.03.08 05.03.08 01.03.08 10.03.08 - 01.03.08 01.03.08 01.03.08 01.03.08
Max-Zeit 15:30 03:10 13:15 05:35 11:20 - 00:05 00:05 00:05 00:05
Maximum 18,4 C 86 % 1026,0 hPa 21,2 l/m 72,2 km/h
N
- 0,00 h 0,0 UV-I 0 W/m 0,0 km/h
N
Durchschnitt 3,4 C 73 % 1002,7 hPa #149,0 l/m 5,7 km/h N #0 min. 0,0 UV-I 0 W/m 0,0 km/h

Durchschnitt Minimum Temp.0,1 C
Durchschnitt Maximum Temp.7,4 C